CDT,Max TemperatureF,Mean TemperatureF,Min TemperatureF,Max Dew PointF,MeanDew PointF,Min DewpointF,Max Humidity, Mean Humidity, Min Humidity, Max Sea Level PressureIn, Mean Sea Level PressureIn, Min Sea Level PressureIn, Max VisibilityMiles, Mean VisibilityMiles, Min VisibilityMiles, Max Wind SpeedMPH, Mean Wind SpeedMPH, Max Gust SpeedMPH,PrecipitationIn, CloudCover, Events, WindDirDegrees
2013-5-1,82,60,41,68,55,38,100,86,54,30.21,29.95,29.71,10,10,7,34,16,43,0.01,6,Rain-Thunderstorm,64
2013-5-2,52,44,37,39,36,27,100,87,40,30.48,30.38,30.25,10,8,2,37,24,48,0.01,6,Rain-Snow-Thunderstorm,1
2013-5-3,62,46,32,34,31,27,100,61,27,30.42,30.20,30.02,10,10,10,20,11,29,0.00,1,,337
2013-5-4,53,43,33,43,36,28,95,70,38,30.10,30.02,29.97,10,10,10,29,14,38,0.00,5,,351
2013-5-5,64,53,43,52,45,41,99,81,59,30.18,30.13,30.08,10,10,10,17,12,18,0.00,6,,349
2013-5-6,72,56,41,59,48,41,100,83,46,30.15,30.08,30.02,10,6,0,8,5,,0.00,2,Fog,4
2013-5-7,79,66,55,57,54,50,100,68,36,30.09,29.99,29.90,10,10,10,16,8,21,0.00,3,,137
2013-5-8,85,72,60,64,57,53,99,69,45,29.94,29.85,29.78,10,10,6,23,15,31,0.02,4,Rain-Thunderstorm,129
2013-5-9,73,64,55,65,60,55,100,92,61,29.99,29.92,29.82,10,8,1,36,14,46,0.88,6,Rain-Thunderstorm,54
2013-5-10,71,62,52,59,55,49,100,81,46,30.11,30.04,29.97,10,10,10,15,11,22,0.00,3,,356
2013-5-11,72,60,49,58,49,39,100,70,32,30.26,30.18,30.11,10,10,10,21,9,29,0.00,0,,346
2013-5-12,75,58,41,48,43,36,99,56,34,30.27,30.18,30.05,10,10,10,18,9,25,0.00,1,,146
2013-5-13,88,70,51,57,51,43,94,54,33,30.07,30.01,29.95,10,10,10,18,10,,0.00,1,,182
2013-5-14,88,74,62,57,51,44,59,43,25,30.00,29.92,29.84,10,10,10,25,16,37,0.00,0,,198
2013-5-15,77,70,62,72,63,54,100,84,61,29.88,29.84,29.77,10,10,7,21,13,26,0.00,5,Rain,144
2013-5-16,76,67,59,66,63,59,100,89,65,29.86,29.81,29.77,10,9,5,12,5,,0.00,5,,89
2013-5-17,76,66,57,74,66,57,100,99,89,29.90,29.86,29.81,10,6,0,15,7,,0.00,6,Fog,124
2013-5-18,90,80,68,76,69,48,100,86,29,29.83,29.76,29.59,10,6,0,53,13,63,0.17,7,Rain-Thunderstorm,130
2013-5-19,87,74,62,72,66,61,100,88,58,29.76,29.65,29.47,10,8,1,26,14,36,0.37,4,Rain-Thunderstorm,119
2013-5-20,83,72,62,70,63,57,100,76,42,29.77,29.68,29.61,10,10,9,16,8,22,0.00,2,,16
2013-5-21,71,64,57,60,54,48,100,77,50,29.93,29.83,29.75,10,8,3,17,9,,0.05,3,Rain-Thunderstorm,274
2013-5-22,77,64,50,60,55,50,100,74,44,29.94,29.88,29.81,10,7,2,9,7,,0.00,1,,36
2013-5-23,65,61,58,61,58,57,100,88,77,30.14,30.02,29.91,10,7,1,17,10,21,0.02,4,Rain-Thunderstorm,88
2013-5-24,81,69,58,74,66,58,100,91,72,30.16,30.11,30.04,10,10,10,20,12,26,0.00,2,,123
2013-5-25,81,71,61,71,67,61,100,84,63,30.12,30.05,29.96,10,10,10,23,14,28,0.01,0,,167
2013-5-26,83,74,66,73,70,67,100,88,64,29.99,29.92,29.84,10,10,10,25,16,33,0.00,3,,167
2013-5-27,84,77,71,73,71,68,100,84,63,29.82,29.73,29.62,10,10,10,31,22,44,0.00,2,,175
2013-5-28,80,76,71,73,70,66,94,81,65,29.72,29.67,29.64,10,10,10,29,20,38,0.00,5,,172
2013-5-29,80,70,60,73,66,61,100,90,65,29.77,29.66,29.55,10,8,1,33,19,40,0.09,6,Rain-Thunderstorm,159
2013-5-30,86,73,60,73,68,61,100,87,43,29.67,29.60,29.55,10,10,7,30,16,40,0.01,5,Rain-Thunderstorm,142
2013-5-31,88,78,67,73,69,63,100,79,54,29.72,29.64,29.54,10,9,7,24,13,32,0.00,3,Thunderstorm,161